TimeEDT,TemperatureF,Dew PointF,Humidity,Sea Level PressureIn,VisibilityMPH,Wind Direction,Wind SpeedMPH,Gust SpeedMPH,PrecipitationIn,Events,Conditions,WindDirDegrees,DateUTC
12:53 AM,72.0,61.0,68,30.10,10.0,SE,12.7,-,N/A,,Overcast,130,2013-04-08 04:53:00
1:53 AM,71.1,61.0,70,30.09,10.0,SE,13.8,-,N/A,,Overcast,130,2013-04-08 05:53:00
2:53 AM,71.1,62.1,73,30.07,10.0,SE,11.5,-,N/A,,Mostly Cloudy,130,2013-04-08 06:53:00
3:53 AM,70.0,61.0,73,30.06,10.0,SE,11.5,-,N/A,,Overcast,130,2013-04-08 07:53:00
4:53 AM,70.0,61.0,73,30.05,10.0,SE,10.4,-,N/A,,Mostly Cloudy,140,2013-04-08 08:53:00
5:53 AM,69.1,62.1,78,30.06,10.0,ESE,11.5,-,N/A,,Clear,120,2013-04-08 09:53:00
6:53 AM,69.1,62.1,78,30.08,10.0,SE,11.5,-,N/A,,Clear,130,2013-04-08 10:53:00
7:53 AM,69.1,61.0,75,30.09,10.0,ESE,10.4,-,N/A,,Clear,120,2013-04-08 11:53:00
8:53 AM,70.0,61.0,73,30.12,10.0,ESE,11.5,-,N/A,,Partly Cloudy,120,2013-04-08 12:53:00
9:53 AM,73.0,62.1,68,30.12,10.0,SE,8.1,-,N/A,,Clear,130,2013-04-08 13:53:00
10:53 AM,75.0,63.0,66,30.13,10.0,SE,5.8,-,N/A,,Clear,130,2013-04-08 14:53:00
11:53 AM,78.1,63.0,60,30.13,10.0,East,4.6,-,N/A,,Clear,90,2013-04-08 15:53:00
12:53 PM,79.0,64.0,60,30.12,10.0,East,4.6,-,N/A,,Clear,90,2013-04-08 16:53:00
1:53 PM,80.1,63.0,56,30.10,10.0,ENE,3.5,-,N/A,,Clear,70,2013-04-08 17:53:00
2:53 PM,82.9,59.0,44,30.07,10.0,ENE,3.5,-,N/A,,Clear,60,2013-04-08 18:53:00
3:53 PM,84.0,57.9,41,30.05,10.0,Calm,Calm,-,N/A,,Clear,0,2013-04-08 19:53:00
4:53 PM,82.0,54.0,38,30.04,10.0,Calm,Calm,-,N/A,,Clear,0,2013-04-08 20:53:00
5:53 PM,86.0,55.0,35,30.04,10.0,Calm,Calm,-,N/A,,Clear,0,2013-04-08 21:53:00
6:53 PM,78.1,62.1,58,30.05,10.0,NW,6.9,-,N/A,,Clear,310,2013-04-08 22:53:00
7:53 PM,77.0,62.1,60,30.06,10.0,North,8.1,-,N/A,,Clear,350,2013-04-08 23:53:00
8:53 PM,75.0,61.0,62,30.08,10.0,NW,5.8,-,N/A,,Clear,320,2013-04-09 00:53:00
9:53 PM,73.9,61.0,64,30.09,10.0,North,3.5,-,N/A,,Clear,10,2013-04-09 01:53:00
10:53 PM,73.0,63.0,71,30.11,10.0,NNE,4.6,-,N/A,,Clear,20,2013-04-09 02:53:00
11:53 PM,73.9,64.9,73,30.12,10.0,SE,6.9,-,N/A,,Clear,130,2013-04-09 03:53:00